Location: Strada George Coșbuc
(47.6577°N, 23.5639°E)
Time: 01:18:01
(UTC+03:00)

ISS - Pass Details

Date: 29 September 2017
Orbit: 401 x 407 km, 51.6° (Epoch: 23 September)

Event Time Altitude Azimuth Distance (km) Brightness Sun altitude
Rises 20:25:33 0° 242° (WSW) 2,311 0.9 -13.6°
Reaches altitude 10° 20:27:37 10° 241° (WSW) 1,456 -0.3 -14.0°
Maximum altitude 20:30:53 81° 154° (SSE) 414 -3.9 -14.5°
Enters shadow 20:32:27 28° 70° (ENE) 788 -2.8 -14.8°
